Miscellaneous Local Product
Issued by NWS North Platte, NE

Home | Current Version | Previous Version | Text Only | Print | Product List | Glossary On
Versions: 1 2 3 4 5 6 7 8 9 10 11 12 13 14 15 16 17 18 19 20 21 22 23 24 25 26 27 28 29 30 31 32 33 34 35 36 37 38 39 40 41 42 43 44 45 46 47 48 49 50
847
AXUS43 KLBF 172210
MISLBF


WESTERN AND NORTH CENTRAL NEBRASKA HOURLY WEATHER ROUNDUP
NATIONAL WEATHER SERVICE NORTH PLATTE NE
500 PM CDT TUE OCT 17 2017

NOTE: "FAIR" INDICATES FEW OR NO CLOUDS BELOW 12,000 FEET WITH NO
SIGNIFICANT WEATHER AND/OR OBSTRUCTIONS TO VISIBILITY.

NOTE: STATIONS NOT REPORTING VARIABLES SUCH AS SKY/WEATHER OR
PRESSURE ARE PROVIDED BY RAWS AND APRS NETWORKS AND ARE NOT UNDER
NATIONAL WEATHER SERVICE QUALITY CONTROL.

...OBSERVATIONS IN AND NEAR THE EASTERN PANHANDLE OF NEBRASKA...

CITY           SKY/WX    TMP DP  RH WIND       PRES   REMARKS
PINE RIDGE     SUNNY     78  20  11 SW8       29.93F
GORDON         FAIR      76  22  13 SW8       29.94F
CHADRON        SUNNY     79  14   8 SW8       29.91F
ALLIANCE       SUNNY     76  15  10 W15       29.98F
SIDNEY         SUNNY     79  13   8 SW16G26   30.03F
CRESCENT LAKE    N/A     79  18  10 W9G20       N/A
$$

...OBSERVATIONS IN NORTHERN NEBRASKA AND FAR SOUTHERN SOUTH DAKOTA...

CITY           SKY/WX    TMP DP  RH WIND       PRES   REMARKS
WINNER         FAIR      73  39  29 S8        29.90F
VALENTINE      SUNNY     76  24  14 SW13      29.92F
THEDFORD       SUNNY     80  25  13 SW15      29.96F
AINSWORTH      SUNNY     77  36  22 S8        29.94F
O`NEILL        SUNNY     74  42  30 S8        29.96F
ORD            SUNNY     77  32  19 S9        29.96F
BROKEN BOW     SUNNY     74  38  27 S9        29.98F
VALENTINE NWR    N/A     75  23  14 SW10G20     N/A
HALSEY           N/A     81  19  10 SW8G15      N/A
BUTTE            N/A     76  38  25 S8G16       N/A
CHAMBERS         N/A     73  40  31 S3          N/A
EWING            N/A     78  40  26 SW6         N/A
$$

...OBSERVATIONS IN SOUTHWEST NEBRASKA AND FAR NORTHEAST COLORADO...

CITY           SKY/WX    TMP DP  RH WIND       PRES   REMARKS
WRAY           FAIR      81  16   9 S12       30.05S
HOLYOKE        FAIR      82  19   9 SW12      30.03F
IMPERIAL       SUNNY     80  13   8 SW10G20   30.02F
OGALLALA       SUNNY     81  20  10 SW13G22   29.98F
NORTH PLATTE   SUNNY     79  30  16 SW7       29.98F
MCCOOK         SUNNY     80  29  15 S9        30.01F
LEXINGTON      SUNNY     78  35  20 S8        29.99F
STAPLETON        N/A     79  31  17 CALM        N/A
GOTHENBURG       N/A     81  26  13 S5          N/A
CALLAWAY         N/A     80  33  18 S10         N/A
$$

...OBSERVATIONS IN CENTRAL LINCOLN COUNTY AREA...

CITY           SKY/WX    TMP DP  RH WIND       PRES   REMARKS
N.P. AIRPORT   SUNNY     79  30  16 SW7       29.98F
N.P. DOWNTOWN    N/A     80  30  16 CALM        N/A
N.P. SOUTHEAST   N/A     80  28  15 SW5         N/A
N.P. HILLCREST   N/A     80  30  16 SW8         N/A
$$

...SOME OBSERVATIONS FROM AROUND THE REGION...

CITY           SKY/WX    TMP DP  RH WIND       PRES   REMARKS
DENVER         MOSUNNY   76  13   9 NW7       30.11F
LIMON          SUNNY     73  14  10 S10       30.14S
ASPEN          SUNNY     67   6   9 N8        30.30F
LARAMIE        SUNNY     66   9  10 W17G28    30.19F
CASPER         SUNNY     74  11   9 SW21G31   30.03F
CHEYENNE       SUNNY     71  11  10 W13G22    30.13F
SCOTTSBLUFF    SUNNY     78  14   9 W12       29.99F
GRAND ISLAND   SUNNY     77  35  21 S5        29.99F
OMAHA          MOSUNNY   72  45  37 S9        30.01S
SIOUX FALLS    SUNNY     77  42  28 S8        29.93F
PIERRE         SUNNY     78  37  22 SE10      29.84F
RAPID CITY     SUNNY     77  24  14 SE14      29.87F
BISMARCK       SUNNY     80  25  13 SW14G23   29.74F
KANSAS CITY    MOSUNNY   70  47  43 S13       30.08F
HILL CITY      SUNNY     81  33  17 S6        30.02F
WICHITA        SUNNY     73  46  38 S20       30.07F
DODGE CITY     SUNNY     79  38  22 S14       30.04F
OKLAHOMA CITY  SUNNY     72  42  34 S10       30.13F
DALLAS         SUNNY     76  40  27 SE7       30.15F
AMARILLO       SUNNY     81  37  20 S17       30.08F
$$




USA.gov is the U.S. government's official web portal to all federal, state and local government web resources and services.